Lid_Strength_Index
0 -0 -1 -1 -1 -1 -1 -1 -1 -1 -1 -1 -1 -1 -1 -1 -1 0 3 1 0 -2 -1 0 1 2 2 4 3 5 8 10 10 9 8 7 7 7 7 5 5 5 4 3 4
-0 -0 -1 -1 -1 -1 -1 -1 -1 -1 -1 -1 -1 -1 -1 -1 1 3 -0 -1 -1 -1 1 3 4 3 5 5 5 6 8 9 7 7 8 8 7 6 6 6 6 5 4 2 4
-0 -0 -1 -1 -2 -2 -1 -1 -1 -1 -1 -1 -1 -1 -1 -1 4 4 -1 -1 -1 -1 1 1 2 3 6 5 5 6 8 8 8 7 6 7 7 6 6 7 5 6 5 3 4
-1 -1 -1 -1 -2 -2 -1 -1 -1 -1 -1 -1 -1 -1 -1 1 10 2 -1 -2 -2 -1 1 3 4 6 6 8 6 8 8 7 7 6 7 6 6 6 5 6 7 5 3 3 4
-1 -1 -1 -1 -1 -1 -2 -1 -1 -1 -1 -1 -1 -1 0 4 5 -1 -1 -2 1 1 3 4 5 5 7 6 6 7 8 8 7 6 7 7 7 7 8 7 4 3 3 4 4
-1 -1 -1 -1 -1 -1 -1 -1 -1 -1 -2 -2 -1 -2 2 7 1 -1 -0 -0 1 2 3 3 4 4 5 6 6 7 7 8 7 7 8 7 8 8 9 4 5 4 4 4 4
-0 -1 -0 -1 -1 -1 -1 -1 -1 -2 -2 -1 -1 0 3 5 1 -1 -0 1 0 3 4 3 2 4 5 7 6 6 8 7 7 8 8 7 9 9 8 4 5 5 4 4 3
-0 -0 -0 -1 -1 -1 -1 -1 -2 -2 -2 -2 -1 1 5 2 0 1 0 2 1 1 3 2 3 5 5 5 7 7 7 10 8 8 9 8 10 9 9 5 6 5 5 4 4
0 -0 0 -0 -1 -1 -1 -2 -2 -2 -2 -2 1 2 6 0 3 2 2 3 3 3 2 3 4 6 6 7 9 8 11 10 10 9 9 8 10 9 9 7 5 5 5 4 4
0 0 0 -0 -0 0 -0 -1 -2 -0 1 1 1 4 3 5 3 3 2 2 4 3 4 6 5 7 7 8 12 11 11 10 10 10 9 10 11 10 9 8 6 6 5 6 6
1 1 0 -0 -0 1 1 2 3 3 4 5 5 5 5 3 2 3 2 3 4 5 9 8 8 11 9 10 10 9 9 10 11 11 11 12 11 9 9 9 7 7 7 7 6
1 1 0 0 0 2 2 4 5 4 7 5 5 4 4 3 5 4 3 6 7 9 9 8 10 9 9 9 10 10 9 11 11 11 11 12 11 10 9 9 8 8 7 7 7
1 1 0 1 1 2 4 5 3 3 7 8 6 6 4 3 6 6 5 6 8 9 8 10 10 8 9 10 11 11 10 12 11 12 12 12 11 11 10 8 9 8 8 8 7
2 1 1 2 3 4 5 4 3 3 9 9 8 6 5 4 8 5 5 7 8 10 9 10 9 9 9 11 11 11 11 11 12 11 12 12 13 11 11 9 9 8 8 7 6
3 2 2 3 4 5 5 4 3 5 17 9 8 4 6 7 7 7 5 6 9 10 9 11 10 10 10 11 10 11 10 11 11 12 11 12 13 11 11 10 9 8 7 7 6
4 3 3 4 4 4 4 4 5 12 17 11 9 9 8 8 8 7 6 6 7 9 9 11 9 9 10 10 10 10 11 11 11 12 16 14 13 11 11 10 9 8 7 7 7
4 4 5 5 6 4 4 5 13 16 11 11 10 9 10 9 9 9 10 10 11 13 13 11 11 10 9 11 10 11 12 15 17 19 14 14 14 11 11 10 9 8 8 7 7
4 5 6 6 4 4 5 8 16 14 12 10 11 10 11 10 10 10 10 11 10 12 13 13 14 11 10 11 12 12 13 14 17 15 14 15 15 12 10 10 9 8 8 7 7
5 5 5 6 6 6 6 13 13 13 11 11 11 12 12 11 11 11 11 11 11 10 12 13 14 11 10 10 11 12 13 13 15 17 15 13 12 11 11 10 9 8 8 7 7
5 6 6 5 6 7 8 13 12 11 10 11 13 12 13 12 12 12 12 10 11 10 9 12 14 12 11 11 11 12 12 13 13 17 17 14 15 17 13 11 9 9 8 7 7
6 7 6 6 6 8 12 13 11 10 9 11 12 13 13 13 12 12 13 11 10 10 10 11 12 13 12 13 13 12 12 14 14 15 16 17 13 10 11 10 9 8 8 8 8
7 7 6 7 9 10 12 12 11 12 10 9 10 11 12 12 12 12 13 12 9 10 12 11 12 13 14 11 11 12 12 13 14 16 15 16 14 11 10 9 8 8 9 8 8
8 8 6 7 10 12 12 12 11 11 11 11 12 11 10 11 12 12 11 9 9 10 11 11 13 15 15 13 12 13 13 13 14 13 15 15 13 11 10 9 8 8 8 8 8
8 8 8 8 10 11 12 12 13 10 11 10 11 11 12 13 12 13 11 9 9 9 9 9 13 15 15 15 13 14 13 13 13 14 14 14 12 11 10 9 8 9 8 8 8
9 11 11 11 11 11 11 12 12 12 10 10 11 11 12 13 13 13 12 11 11 11 11 11 13 14 13 13 13 13 13 13 14 13 15 13 14 11 10 10 8 7 9 9 10
9 10 11 11 12 12 12 12 12 12 11 12 12 11 11 12 12 13 12 12 12 11 11 12 15 15 16 16 16 16 14 14 13 14 14 14 15 11 10 10 11 11 10 10 10
9 9 9 13 12 12 12 12 12 11 11 10 11 11 12 11 10 10 10 10 11 11 12 13 14 15 16 15 15 16 14 14 14 13 13 15 12 11 11 11 11 10 10 10 10